Regional Weather Roundup
Issued by NWS

Home | Current Version | Previous Version | Text Only | Print | Product List | Glossary On
Versions: 1 2 3 4 5 6 7 8 9 10 11 12 13 14 15 16 17 18 19 20 21 22 23 24 25 26 27 28 29 30 31 32 33 34 35 36 37 38 39 40 41 42 43 44 45 46 47 48 49 50
000
ASUS45 KBOU 201910
RWRCO

WEATHER ROUNDUP FOR COLORADO
NATIONAL WEATHER SERVICE PUEBLO CO
100 PM MDT FRI APR 20 2018

NOTE: "FAIR" INDICATES FEW OR NO CLOUDS BELOW 12000 FEET WITH NO
SIGNIFICANT WEATHER AND/OR OBSTRUCTIONS TO VISIBILITY.

COZ001>005-013-030-031-202000-
...NORTHWEST COLORADO...

CITY           SKY/WX    TMP DP  RH WIND       PRES   REMARKS
CRAIG          LGT RAIN  40  36  86 W7        29.91R
HAYDEN         CLOUDY    38  35  89 W8        29.90S
MEEKER         LGT RAIN  43  38  82 NW13      29.90F
RABBIT EARS PA NOT AVBL
STEAMBOAT SPGS CLOUDY    39  36  91 W7        29.89S
WALDEN         FAIR      46  21  36 N21       29.87R
$$

COZ006>008-011-202000-
...WEST CENTRAL VALLEYS...

CITY           SKY/WX    TMP DP  RH WIND       PRES   REMARKS
GRAND JUNCTION LGT RAIN  50  23  34 E10       29.92R
MONTROSE       CLOUDY    44  27  51 N14       29.94S
EAGLE          LGT RAIN  42  36  79 NW5       29.87R
RIFLE          LGT RAIN  39  34  82 W23G30    29.90R
DELTA          NOT AVBL
NUCLA          FAIR      50   5  16 SW7       29.94S
$$

COZ017>023-064>068-202000-
...SOUTHWEST COLORADO...

CITY           SKY/WX    TMP DP  RH WIND       PRES   REMARKS
DURANGO        PTSUNNY   45  15  30 MISG      29.94F
CORTEZ         CLOUDY    46  21  37 NW9       29.96R
PAGOSA SPRINGS FAIR      39  31  74 SE6       29.97F
TELLURIDE      MOSUNNY   34  20  57 SE3       29.97S
WOLF CREEK PAS PTSUNNY   18  16  93 SW13G22   30.02R WCI   4
$$

COZ009-010-012-014-032>034-037-058>063-202000-
...CENTRAL COLORADO...

CITY           SKY/WX    TMP DP  RH WIND       PRES   REMARKS
ASPEN          LGT SNOW  35  32  88 S6        29.88R VSB 1   WCI  30
BUENA VISTA    LGT SNOW  33  31  94 SE8       29.95R WCI  25
COPPER MTN     NOT AVBL
BERTHOUD PASS  CLOUDY    23  12  63 SE14G24   29.98F WCI  11
COTTONWOOD PAS SNOW      34  34 100 SE10      29.95R VSB<1/4 WCI  26
GUNNISON       LGT RAIN  35  27  72 SW23G32   29.88R WCI  23
KREMMLING      CLOUDY    55  32  41 N8        29.82F
LEADVILLE      LGT SNOW  30  29  96 S15G28    29.89R FOG     WCI  19
MONARCH PASS   FOG       21  19  93 E16       30.05F VSB<1/4 WCI   7
SALIDA         CLOUDY    34  33  95 SE5       30.01R VSB 1/2 WCI  30
SUNLIGHT       TSTM      27  27 100 CALM      29.95S VSB<1/4
WILKERSON PASS LGT SNOW  28  25  86 CALM      29.99S VSB 1
$$

COZ069>075-202000-
...SAN LUIS VALLEY/SANGRE DE CRISTO MOUNTAINS...

CITY           SKY/WX    TMP DP  RH WIND       PRES   REMARKS
ALAMOSA        LGT SNOW  35  34  96 S18       29.95R VSB 1   WCI  24
DEL NORTE      FAIR      40  32  75 SE5       29.92S
LA VETA PASS   SNOW      27  25  93 MISG      30.05R VSB<1/4
SAGUACHE       NOT AVBL
$$

COZ035-036-038>040-202000-
...NORTHERN COLORADO FRONT RANGE...

CITY           SKY/WX    TMP DP  RH WIND       PRES   REMARKS
DENVER INTL AP PTSUNNY   56  29  35 S13G23    29.87F
DMNS CITY PARK NOT AVBL
AURORA         PTSUNNY   55  29  38 NW10      29.88F
FRONT RANGE AP PTSUNNY   59  30  33 SE15G23   29.89F
ERIE MUNI ARPT PTSUNNY   52  28  40 NW9       29.95F
BOULDER MUN AP CLOUDY    46  28  49 NW9       29.90F
CENTENNIAL     PTSUNNY   53  31  42 S12G22    29.88F
BROOMFIELD     PTSUNNY   48  28  46 NW13      29.91F
LOVELAND       CLOUDY    49  37  63 NW12      29.90F
LONGMONT       CLOUDY    51  31  48 NW9       29.92F
$$

COZ041-046-047-076>085-087-088-202000-
...PIKES PEAK/PALMER DIVIDE AND SOUTHERN FOOTHILLS...

CITY           SKY/WX    TMP DP  RH WIND       PRES   REMARKS
COLO. SPRINGS  PTSUNNY   48  32  53 E20G32    29.91F
A. F. ACADEMY  CLOUDY    45  28  51 SW10      29.91F
SCHRIEVER AFB  NOT AVBL
CHEYENNE MTN   NOT AVBL
ELLICOTT         N/A    N/A N/A N/A SE30G38   29.91F
FALCON         PTSUNNY   46  29  52 E22G31    29.93F
FORT CARSON    CLOUDY    51  31  46 E22G29    29.86F
LIMON          CLOUDY    43  34  70 SE33G46   29.96F
MONUMENT HILL  PTSUNNY   46  30  53 S20G33    29.93S
CANON CITY     CLOUDY    55  32  41 NE28G33   29.80F
WALSENBURG     FAIR      57  34  41 S26G36    29.86R
TRINIDAD       MOSUNNY   52  32  46 S25G41    29.89F
$$

COZ042>045-048>051-090-091-202000-
...NORTHEAST COLORADO...

CITY           SKY/WX    TMP DP  RH WIND       PRES   REMARKS
GREELEY ARPT   MOSUNNY   55  31  39 E31G39    29.89F
AKRON          CLOUDY    38  35  89 SE30G44   30.03F
BURLINGTON     LGT RAIN  40  35  83 SE26G37   30.06F
WRAY           CLOUDY    41  36  81 SE14G21   30.12F
YUMA           NOT AVBL
STERLING       NOT AVBL
HOLYOKE        RAIN      37  34  87 SE17      30.15S
FORT MORGAN    CLOUDY    45  34  66 SE21G29   30.00S
$$

COZ086-089-092>099-202000-
...SOUTHEAST COLORADO...

CITY           SKY/WX    TMP DP  RH WIND       PRES   REMARKS
PUEBLO         CLOUDY    62  33  33 SE33G45   29.81F
LA JUNTA       MOSUNNY   52  31  44 SE25G39   29.93F
LAMAR          CLOUDY    46  32  58 SE20G28   30.01F
SPRINGFIELD      N/A     43  31  62 SE24G35   30.02F
$$




USA.gov is the U.S. government's official web portal to all federal, state and local government web resources and services.